Gwinn, MI

11:20 AM EDT on April 23, 2018 (GMT -0400)
Sawyer International

Weather History for KSAW - June, 2013

Change the Weather History Date:

Sunday, June 16, 2013

  Actual Average (KESC) Record (KESC)
Temperature  
Mean Temperature 65 °F -  
Max Temperature 77 °F 65 °F 84 °F (1955)
Min Temperature 53 °F 51 °F 40 °F (1972)
Growing Degree Days 15 (Base 50)    
Moisture  
Dew Point 54 °F    
Average Humidity 81    
Maximum Humidity 97    
Minimum Humidity 34    
Precipitation  
Precipitation 0.01 in - - ()
Sea Level Pressure  
Sea Level Pressure 29.81 in    
Wind  
Wind Speed 4 mph (NW)    
Max Wind Speed 20 mph    
Max Gust Speed 32 mph    
Visibility 8 miles    
Events Rain , Thunderstorm    
Averages and records for this station are not official NWS values.
T = Trace of Precipitation, MM = Missing Value Source: NWS Daily Summary

Daily Weather History Graph

Daily Weather History Graph

Search for Another Location

Airport or City:

Astronomy

Jun. 16, 2013 Rise Set
Actual Time 5:56 AM EDT 9:44 PM EDT
Civil Twilight 5:17 AM EDT 10:23 PM EDT
Nautical Twilight 4:24 AM EDT 11:16 PM EDT
Astronomical Twilight 3:09 AM EDT 12:31 AM EDT
Moon 1:57 PM EDT (6/16) 1:25 AM EDT (6/16)
Length of Visible Light 17h 05m
Length of Day
15h 47m
Waxing Crescent, 49% of the Moon is Illuminated
Jun 16
Waxing Crescent
Jun 16
First Quarter
Jun 23
Full
Jun 30
Last Quarter
Jul 8
New

Hourly Weather History & Observations

Time (EDT) Temp. Dew Point Humidity Pressure Visibility Wind Dir Wind Speed Gust Speed Precip Events Conditions
12:16 AM 61.3 °F 59.5 °F 94% 29.81 in 10.0 mi SW 3.5 mph - N/A   Mostly Cloudy
12:36 AM 61.2 °F 59.5 °F 94% 29.80 in 7.0 mi Calm Calm - N/A   Overcast
12:57 AM 60.8 °F 59.4 °F 95% 29.81 in 7.0 mi Calm Calm - N/A   Mostly Cloudy
1:16 AM 60.8 °F 59.4 °F 95% 29.82 in 7.0 mi Calm Calm - N/A   Overcast
1:37 AM 60.8 °F 59.2 °F 94% 29.82 in 7.0 mi Calm Calm - N/A   Mostly Cloudy
1:56 AM 60.8 °F 59.4 °F 95% 29.82 in 7.0 mi Calm Calm - N/A   Scattered Clouds
2:16 AM 60.8 °F 59.4 °F 95% 29.81 in 7.0 mi Calm Calm - N/A   Clear
2:37 AM 60.3 °F 59.2 °F 96% 29.80 in 7.0 mi Calm Calm - N/A   Clear
2:56 AM 59.9 °F 58.5 °F 95% 29.81 in 7.0 mi Calm Calm - N/A   Scattered Clouds
3:17 AM 59.9 °F 58.6 °F 96% 29.80 in 1.0 mi Calm Calm - N/A   Overcast
3:36 AM 59.7 °F 58.6 °F 96% 29.80 in 2.0 mi Calm Calm - N/A   Overcast
3:56 AM 60.1 °F 59.2 °F 97% 29.79 in 2.5 mi Calm Calm - N/A   Overcast
4:17 AM 59.9 °F 59.0 °F 97% 29.79 in 5.0 mi Calm Calm - N/A   Overcast
4:36 AM 59.5 °F 58.6 °F 97% 29.78 in 5.0 mi Calm Calm - N/A   Overcast
4:57 AM 58.6 °F 57.6 °F 96% 29.78 in 5.0 mi Calm Calm - N/A   Scattered Clouds
5:17 AM 58.1 °F 57.2 °F 97% 29.77 in 5.0 mi Calm Calm - N/A   Clear
5:36 AM 58.1 °F 56.8 °F 96% 29.78 in 7.0 mi Calm Calm - N/A   Clear
5:57 AM 57.6 °F 56.5 °F 96% 29.78 in 4.0 mi Calm Calm - N/A   Clear
6:50 AM 57.2 °F 55.4 °F 94% 29.79 in 10.0 mi Calm Calm - N/A   Clear
7:50 AM 59.0 °F 57.2 °F 94% 29.79 in 10.0 mi Calm Calm - N/A   Partly Cloudy
8:50 AM 64.4 °F 57.2 °F 77% 29.79 in 10.0 mi West 6.9 mph - N/A   Clear
9:50 AM 68.0 °F 53.6 °F 60% 29.79 in 10.0 mi West 12.7 mph - N/A   Clear
10:50 AM 73.4 °F 51.8 °F 47% 29.78 in 10.0 mi West 18.4 mph 21.9 mph N/A   Clear
11:50 AM 75.2 °F 48.2 °F 38% 29.77 in 10.0 mi WNW 16.1 mph 25.3 mph N/A   Scattered Clouds
12:50 PM 75.2 °F 46.4 °F 36% 29.77 in 10.0 mi NNW 19.6 mph 32.2 mph N/A   Scattered Clouds
1:55 PM 77.0 °F 46.4 °F 34% 29.78 in 10.0 mi WNW 19.6 mph 26.5 mph N/A   Mostly Cloudy
2:55 PM 75.2 °F 46.4 °F 36% 29.78 in 10.0 mi NW 17.3 mph 24.2 mph N/A   Mostly Cloudy
3:50 PM 77.0 °F 46.4 °F 34% 29.79 in 10.0 mi NW 13.8 mph 23.0 mph N/A   Mostly Cloudy
4:50 PM 73.4 °F 48.2 °F 41% 29.80 in 10.0 mi NNE 13.8 mph 19.6 mph N/A   Mostly Cloudy
5:50 PM 68.0 °F 50.0 °F 52% 29.80 in 10.0 mi ENE 8.1 mph - N/A   Scattered Clouds
6:50 PM 68.0 °F 50.0 °F 52% 29.79 in 10.0 mi East 5.8 mph - N/A   Mostly Cloudy
7:16 PM 57.2 °F 51.8 °F 82% 29.85 in 8.0 mi North 18.4 mph 32.2 mph N/A Rain , Thunderstorm Heavy Thunderstorms and Rain
7:50 PM 55.4 °F 51.8 °F 88% 29.87 in 10.0 mi NNE 13.8 mph - N/A Rain Light Rain
8:50 PM 55.4 °F 51.8 °F 88% 29.89 in 10.0 mi Calm Calm - N/A   Mostly Cloudy
9:50 PM 53.6 °F 51.8 °F 94% 29.86 in 10.0 mi Calm Calm - N/A   Scattered Clouds
10:16 PM 54.5 °F 51.8 °F 91% 29.87 in 10.0 mi Calm Calm - N/A   Clear
10:37 PM 54.5 °F 51.3 °F 89% 29.87 in 10.0 mi Calm Calm - 0.01 in   Clear
10:56 PM 54.5 °F 51.4 °F 89% 29.88 in 10.0 mi WSW 4.6 mph - 0.01 in   Clear
11:16 PM 54.5 °F 51.3 °F 89% 29.88 in 10.0 mi WSW 5.8 mph - N/A   Mostly Cloudy
11:37 PM 54.7 °F 51.1 °F 88% 29.88 in 10.0 mi WSW 3.5 mph - N/A   Overcast
11:56 PM 53.8 °F 50.9 °F 90% 29.86 in 10.0 mi Calm Calm - N/A   Scattered Clouds